Lumberton, NC

9:46 AM EDT on April 20, 2018 (GMT -0400)
Lumberton Municipal

Weather History for KLBT - September, 2013

Change the Weather History Date:

Saturday, September 14, 2013

  Actual Average Record
Temperature  
Mean Temperature 73 °F 74 °F  
Max Temperature 81 °F 84 °F 94 °F (2010)
Min Temperature 65 °F 63 °F 52 °F (2015)
Degree Days  
Heating Degree Days 0 0  
Month to date heating degree days 0 0  
Since 1 July heating degree days 0 0  
Cooling Degree Days 8 9  
Month to date cooling degree days 185 143  
Year to date cooling degree days 1696 1715  
Growing Degree Days 22 (Base 50)    
Moisture  
Dew Point 55 °F    
Average Humidity 55    
Maximum Humidity 68    
Minimum Humidity 42    
Precipitation  
Precipitation 0.00 in 0.14 in 0.81 in (2002)
Month to date precipitation 0.89 2.34  
Year to date precipitation 36.87 32.73  
Sea Level Pressure  
Sea Level Pressure 29.99 in    
Wind  
Wind Speed 9 mph (NE)    
Max Wind Speed 18 mph    
Max Gust Speed 25 mph    
Visibility 10 miles    
Events      
T = Trace of Precipitation, MM = Missing Value Source: NWS Daily Summary

Daily Weather History Graph

Daily Weather History Graph

Search for Another Location

Airport or City:

Astronomy

Sep. 14, 2013 Rise Set
Actual Time 6:58 AM EDT 7:24 PM EDT
Civil Twilight 6:33 AM EDT 7:49 PM EDT
Nautical Twilight 6:03 AM EDT 8:18 PM EDT
Astronomical Twilight 5:33 AM EDT 8:49 PM EDT
Moon 3:54 PM EDT (9/14) 1:38 AM EDT (9/14)
Length of Visible Light 13h 15m
Length of Day
12h 25m
Waxing Gibbous, 72% of the Moon is Illuminated
Sep 14
Waxing Gibbous
Sep 19
Full
Sep 26
Last Quarter
Oct 4
New
Oct 11
First Quarter

Hourly Weather History & Observations

Time (EDT) Temp. Heat Index Dew Point Humidity Pressure Visibility Wind Dir Wind Speed Gust Speed Precip Events Conditions
12:54 AM 69.1 °F - 55.0 °F 61% 29.85 in 10.0 mi North 6.9 mph - N/A   Partly Cloudy
1:54 AM 69.1 °F - 55.9 °F 63% 29.85 in 10.0 mi NNE 5.8 mph - N/A   Scattered Clouds
2:54 AM 68.0 °F - 57.0 °F 68% 29.86 in 10.0 mi North 5.8 mph - N/A   Partly Cloudy
3:54 AM 66.9 °F - 55.0 °F 66% 29.88 in 10.0 mi NNE 5.8 mph - N/A   Mostly Cloudy
4:54 AM 68.0 °F - 54.0 °F 61% 29.89 in 10.0 mi North 9.2 mph - N/A   Mostly Cloudy
5:54 AM 66.0 °F - 55.0 °F 68% 29.91 in 10.0 mi NNE 10.4 mph - N/A   Partly Cloudy
6:54 AM 66.0 °F - 53.1 °F 63% 29.94 in 10.0 mi NNE 9.2 mph - N/A   Overcast
7:54 AM 64.9 °F - 52.0 °F 63% 29.96 in 10.0 mi NNE 10.4 mph - N/A   Clear
8:54 AM 66.9 °F - 51.1 °F 57% 29.99 in 10.0 mi NE 15.0 mph 20.7 mph N/A   Clear
9:54 AM 69.1 °F - 51.1 °F 53% 30.00 in 10.0 mi NE 12.7 mph 23.0 mph N/A   Partly Cloudy
10:54 AM 72.0 °F - 52.0 °F 49% 30.02 in 10.0 mi NNE 16.1 mph 23.0 mph N/A   Clear
11:54 AM 75.0 °F - 54.0 °F 48% 30.02 in 10.0 mi NNE 13.8 mph - N/A   Clear
12:54 PM 75.9 °F - 54.0 °F 46% 30.02 in 10.0 mi ENE 11.5 mph 20.7 mph N/A   Clear
1:54 PM 79.0 °F - 55.0 °F 44% 30.02 in 10.0 mi NE 11.5 mph - N/A   Clear
2:54 PM 81.0 °F 80.8 °F 55.9 °F 42% 30.01 in 10.0 mi Variable 5.8 mph - N/A   Clear
3:54 PM 81.0 °F 80.8 °F 55.9 °F 42% 30.00 in 10.0 mi North 9.2 mph - N/A   Clear
4:54 PM 80.1 °F 80.2 °F 55.9 °F 43% 30.01 in 10.0 mi Variable 5.8 mph - N/A   Clear
5:54 PM 79.0 °F - 55.0 °F 44% 30.02 in 10.0 mi NE 10.4 mph - N/A   Clear
6:54 PM 75.9 °F - 55.9 °F 50% 30.03 in 10.0 mi NE 4.6 mph - N/A   Partly Cloudy
7:54 PM 72.0 °F - 55.9 °F 57% 30.04 in 10.0 mi NE 4.6 mph - N/A   Clear
8:54 PM 71.1 °F - 55.9 °F 59% 30.08 in 10.0 mi NE 5.8 mph - N/A   Clear
9:54 PM 70.0 °F - 55.0 °F 59% 30.10 in 10.0 mi ENE 6.9 mph - N/A   Clear
10:54 PM 69.1 °F - 55.0 °F 61% 30.11 in 10.0 mi NE 6.9 mph - N/A   Clear
11:54 PM 68.0 °F - 55.0 °F 63% 30.12 in 10.0 mi ENE 4.6 mph - N/A   Partly Cloudy